Regional Weather Roundup
Issued by NWS Portland, ME

Current Version | Previous Version | Text Only | Print | Product List | Glossary Off
Versions: 1 2 3 4 5 6 7 8 9 10 11 12 13 14 15 16 17 18 19 20 21 22 23 24 25 26 27 28 29 30 31 32 33 34 35 36 37 38 39 40 41 42 43 44 45 46 47 48 49 50
000 ASUS41 KGYX 180210 RWRGYX WEATHER ROUNDUP FOR MAINE AND NEW HAMPSHIRE NATIONAL WEATHER SERVICE GRAY ME 1000 PM EDT FRI AUG 17 2018 MEZ002-005-006-010-012-015-018-020-021-024-026-027-029-180300- MAINE CITY SKY/WX TMP DP RH WIND PRES REMARKS PORTLAND CLOUDY 70 69 97 E6 29.93F SANFORD LGT RAIN 70 68 94 CALM 29.93F VSB 3/4 BAR HARBOR MOCLDY 65 62 90 S7 29.97F WISCASSET CLOUDY 70 68 93 E3 29.96F ROCKLAND CLOUDY 66 65 96 CALM 29.97F FRYEBURG CLOUDY 68 66 93 CALM 29.94F LEWISTONAUBURN CLOUDY 69 67 93 S3 29.94F AUGUSTA CLOUDY 69 66 90 SE7 29.95F WATERVILLE FAIR 68 64 88 S3 29.92F BANGOR CLOUDY 67 61 81 S9 29.96F GREENVILLE N/A 61 61 100 CALM 29.94F MILLINOCKET CLOUDY 64 60 87 VRB7 29.95F HOULTON LGT RAIN 64 64 100 S6 29.94F FOG PRESQUE ISLE RAIN 67 61 81 S6 29.94F FRENCHVILLE LGT RAIN 67 58 72 SE6 29.94F CARIBOU LGT RAIN 67 61 81 S5 29.93F $$ NHZ002-005-008-009-011-012-014-180300- NEW HAMPSHIRE CITY SKY/WX TMP DP RH WIND PRES REMARKS PORTSMOUTH LGT RAIN 70 69 96 CALM 29.91F FOG ROCHESTER RAIN 70 70 100 CALM 29.93F FOG MANCHESTER NOT AVBL CONCORD TSTM 71 71 100 S5 29.92F FOG LACONIA RAIN 70 70 100 CALM 29.94S PLYMOUTH TSTM 69 67 93 SE3 29.91F VSB 3/4 BERLIN MOCLDY 70 64 81 S3 29.91F WHITEFIELD LGT RAIN 71 68 90 N3 29.89F JAFFREY NOT AVBL LEBANON LGT RAIN 75 71 87 S5 29.88F FOG MT WASHINGTON FOG 57 57 100 SW33G46 N/A VSB 0 $$ VTZ005-007-008-180300- VERMONT CITY SKY/WX TMP DP RH WIND PRES REMARKS ST JOHNSBURY N/A 69 69 100 MISG 29.86F MONTPELIER FAIR 69 69 100 CALM 29.92F BURLINGTON LGT RAIN 75 72 90 CALM 29.83F FOG $$ MAZ007-012-024-CTZ003-RIZ002-NYZ038-NYZ072-180300- SOUTHERN NEW ENGLAND AND NY CITY SKY/WX TMP DP RH WIND PRES REMARKS BOSTON CLOUDY 79 71 76 SW10 29.93F WORCESTER LGT RAIN 73 71 93 SW12 29.96F NANTUCKET CLOUDY 71 71 100 S8 30.01S FOG PROVIDENCE CLOUDY 78 74 87 SW10 29.97F HARTFORD LGT RAIN 77 73 87 S8 29.93F ALBANY TSTM 75 71 87 S9 29.90R NEW YORK CITY CLOUDY 85 70 60 W30G39 29.96R THUNDER $$ ANZ081-ANZ082-ANZ150-NHZ014-MEZ023>029-180300- COASTAL MARINE OBSERVATIONS STATION/POSITION TIME TEMP WIND PRES WAVE AIR SEA DIR/SP/G HT/PER (UTC) (F) (DEG/KT/KT) (MB) (FT/S) MOUNT DESERT ROC 0100 63 130/ 15/ 15 1015.5F MATINICUS ROCK 0100 64 140/ 19/ 19 1014.3F ISLE OF SHOALS 0100 71 160/ 8/ 8 1012.9S JEFFREYS LEDGE 0106 70 N/A 3/ 4 CASHES LEDGE BUO 0150 70 70 1014.2F 2/ 3 $$ .............KEY.............. WCI - WIND CHILL TC - TEMPERATURE IN CELSIUS VSB - VISIBILITY IN MILES HX - HEAT INDEX FAIR- INDICATES FEW OR NO CLOUDS BELOW 12,000 FT, WITH NO SIGNIFICANT WEATHER AND/OR OBSTRUCTIONS TO VISIBILITY.

USA.gov is the U.S. government's official web portal to all federal, state and local government web resources and services.